TimeMDT,TemperatureF,Dew PointF,Humidity,Sea Level PressureIn,VisibilityMPH,Wind Direction,Wind SpeedMPH,Gust SpeedMPH,PrecipitationIn,Events,Conditions,WindDirDegrees,DateUTC
12:53 AM,39.0,21.9,50,30.00,10.0,Calm,Calm,-,N/A,,Clear,0,2013-09-30 06:53:00
1:53 AM,36.0,23.0,59,30.00,10.0,West,6.9,-,N/A,,Clear,280,2013-09-30 07:53:00
2:53 AM,35.1,21.9,59,29.99,10.0,ESE,3.5,-,N/A,,Clear,110,2013-09-30 08:53:00
3:53 AM,34.0,21.9,61,29.97,10.0,Calm,Calm,-,N/A,,Clear,0,2013-09-30 09:53:00
4:53 AM,33.1,23.0,66,29.98,10.0,Calm,Calm,-,N/A,,Clear,0,2013-09-30 10:53:00
5:53 AM,30.9,23.0,72,29.99,10.0,WSW,6.9,-,N/A,,Clear,250,2013-09-30 11:53:00
6:53 AM,30.9,23.0,72,30.01,10.0,Calm,Calm,-,N/A,,Clear,0,2013-09-30 12:53:00
7:53 AM,33.1,23.0,66,30.05,10.0,SW,5.8,-,N/A,,Clear,220,2013-09-30 13:53:00
8:53 AM,46.9,24.1,41,29.99,10.0,WSW,5.8,-,N/A,,Clear,250,2013-09-30 14:53:00
9:53 AM,57.0,23.0,27,30.00,10.0,Calm,Calm,-,N/A,,Clear,0,2013-09-30 15:53:00
10:53 AM,62.1,19.0,19,29.99,10.0,West,4.6,-,N/A,,Clear,270,2013-09-30 16:53:00
11:53 AM,64.9,23.0,20,29.96,10.0,WNW,11.5,-,N/A,,Clear,290,2013-09-30 17:53:00
12:53 PM,66.9,23.0,19,29.93,10.0,NW,8.1,-,N/A,,Clear,320,2013-09-30 18:53:00
1:53 PM,68.0,24.1,19,29.92,10.0,South,9.2,-,N/A,,Clear,170,2013-09-30 19:53:00
2:53 PM,68.0,23.0,18,29.89,10.0,Variable,6.9,-,N/A,,Clear,0,2013-09-30 20:53:00
3:53 PM,70.0,23.0,17,29.88,10.0,Variable,5.8,-,N/A,,Clear,0,2013-09-30 21:53:00
4:53 PM,71.1,21.0,15,29.87,10.0,Variable,5.8,-,N/A,,Clear,0,2013-09-30 22:53:00
5:53 PM,68.0,19.9,16,29.88,10.0,NW,8.1,-,N/A,,Clear,320,2013-09-30 23:53:00
6:53 PM,61.0,21.0,21,29.92,10.0,WSW,11.5,-,N/A,,Clear,240,2013-10-01 00:53:00
7:53 PM,53.1,23.0,31,29.96,10.0,West,11.5,-,N/A,,Clear,260,2013-10-01 01:53:00
8:53 PM,50.0,21.9,33,29.93,10.0,Calm,Calm,-,N/A,,Clear,0,2013-10-01 02:53:00
9:53 PM,43.0,24.1,47,29.93,10.0,WSW,3.5,-,N/A,,Clear,250,2013-10-01 03:53:00
10:53 PM,41.0,24.1,51,29.92,10.0,West,4.6,-,N/A,,Clear,270,2013-10-01 04:53:00
11:53 PM,37.9,26.1,62,29.92,10.0,West,5.8,-,N/A,,Clear,260,2013-10-01 05:53:00